TimeEST,TemperatureF,Dew PointF,Humidity,Sea Level PressureIn,VisibilityMPH,Wind Direction,Wind SpeedMPH,Gust SpeedMPH,PrecipitationIn,Events,Conditions,WindDirDegrees,DateUTC
12:53 AM,37.0,36.0,96,29.84,0.2,Calm,Calm,-,N/A,Fog,Fog,0,2013-02-24 05:53:00
1:53 AM,37.0,36.0,96,29.85,0.2,Calm,Calm,-,0.01,Fog,Fog,0,2013-02-24 06:53:00
2:53 AM,37.0,36.0,96,29.84,0.2,WNW,3.5,-,N/A,Fog,Fog,300,2013-02-24 07:53:00
3:53 AM,37.0,36.0,96,29.81,0.5,NW,3.5,-,N/A,Fog,Fog,310,2013-02-24 08:53:00
4:53 AM,36.0,35.1,97,29.81,0.2,Calm,Calm,-,N/A,Fog,Fog,0,2013-02-24 09:53:00
5:41 AM,35.6,35.6,100,29.82,1.2,WNW,5.8,-,N/A,,Overcast,300,2013-02-24 10:41:00
5:53 AM,36.0,36.0,100,29.84,2.5,NW,4.6,-,N/A,,Overcast,310,2013-02-24 10:53:00
6:02 AM,37.4,35.6,93,29.83,3.0,NW,3.5,-,N/A,,Overcast,310,2013-02-24 11:02:00
6:23 AM,35.6,35.6,100,29.83,2.5,West,3.5,-,N/A,,Overcast,280,2013-02-24 11:23:00
6:40 AM,35.6,35.6,100,29.83,2.0,West,3.5,-,N/A,,Overcast,270,2013-02-24 11:40:00
6:53 AM,36.0,35.1,97,29.85,1.5,Calm,Calm,-,N/A,,Overcast,0,2013-02-24 11:53:00
7:01 AM,35.6,33.8,93,29.83,0.8,WNW,3.5,-,N/A,,Overcast,290,2013-02-24 12:01:00
7:53 AM,34.0,33.1,96,29.86,0.2,Calm,Calm,-,N/A,Fog,Fog,0,2013-02-24 12:53:00
8:43 AM,37.4,37.4,100,29.84,2.0,North,4.6,-,N/A,,Mostly Cloudy,350,2013-02-24 13:43:00
8:46 AM,39.2,35.6,87,29.85,3.0,North,5.8,-,N/A,,Scattered Clouds,350,2013-02-24 13:46:00
8:53 AM,39.0,36.0,89,29.86,3.0,NNW,5.8,-,N/A,,Scattered Clouds,340,2013-02-24 13:53:00
9:53 AM,41.0,30.9,67,29.88,9.0,NW,15.0,-,N/A,,Partly Cloudy,310,2013-02-24 14:53:00
10:53 AM,42.1,28.0,58,29.90,10.0,West,15.0,21.9,N/A,,Clear,280,2013-02-24 15:53:00
11:53 AM,42.1,25.0,51,29.90,10.0,WNW,16.1,24.2,N/A,,Clear,290,2013-02-24 16:53:00
12:53 PM,43.0,25.0,49,29.89,10.0,WNW,15.0,23.0,N/A,,Scattered Clouds,300,2013-02-24 17:53:00
1:53 PM,41.0,23.0,49,29.89,10.0,NW,20.7,25.3,N/A,,Mostly Cloudy,310,2013-02-24 18:53:00
2:53 PM,39.0,21.9,50,29.92,10.0,WNW,17.3,23.0,N/A,,Mostly Cloudy,290,2013-02-24 19:53:00
3:53 PM,37.0,25.0,62,29.96,10.0,NNW,10.4,-,N/A,,Overcast,330,2013-02-24 20:53:00
4:53 PM,35.1,24.1,64,29.98,10.0,WNW,13.8,19.6,N/A,,Overcast,300,2013-02-24 21:53:00
5:53 PM,34.0,24.1,67,30.01,10.0,West,9.2,-,N/A,,Mostly Cloudy,280,2013-02-24 22:53:00
6:53 PM,32.0,23.0,69,30.04,10.0,West,6.9,-,N/A,,Scattered Clouds,270,2013-02-24 23:53:00
7:53 PM,30.9,19.9,64,30.07,10.0,West,9.2,-,N/A,,Clear,280,2013-02-25 00:53:00
8:53 PM,30.0,19.0,64,30.09,10.0,West,6.9,-,N/A,,Clear,280,2013-02-25 01:53:00
9:53 PM,28.9,19.0,67,30.09,10.0,West,4.6,-,N/A,,Scattered Clouds,280,2013-02-25 02:53:00
10:53 PM,30.0,18.0,61,30.09,10.0,WNW,6.9,-,N/A,,Clear,290,2013-02-25 03:53:00
11:53 PM,28.0,18.0,66,30.11,10.0,West,6.9,-,N/A,,Clear,280,2013-02-25 04:53:00